Trinity Center, CA

5:41 PM PDT on August 22, 2017 (GMT -0700)
Trinity Center

Weather History for KO86 - January, 2013

Change the Weather History Date:

Tuesday, January 22, 2013

  Actual Average (KMHS) Record (KMHS)
Temperature  
Mean Temperature 34 °F -  
Max Temperature 44 °F 42 °F 60 °F (2005)
Min Temperature 23 °F 27 °F 0 °F (1962)
Degree Days  
Heating Degree Days 32    
Moisture  
Dew Point 27 °F    
Average Humidity 85    
Maximum Humidity 100    
Minimum Humidity 49    
Precipitation  
Precipitation 0.00 in - - ()
Sea Level Pressure  
Sea Level Pressure 30.19 in    
Wind  
Wind Speed 1 mph (West)    
Max Wind Speed 4 mph    
Max Gust Speed -    
Visibility 9 miles    
Events      
Averages and records for this station are not official NWS values.
T = Trace of Precipitation, MM = Missing Value Source: NWS Daily Summary

Daily Weather History Graph

Daily Weather History Graph

Search for Another Location

Airport or City:

Trip Planner

Search our weather history database for the weather conditions in past years. The results will help you decide how hot, cold, wet, or windy it might be!

Date:

Astronomy

Jan. 22, 2013 Rise Set
Actual Time 7:29 AM PST 5:16 PM PST
Civil Twilight 6:59 AM PST 5:45 PM PST
Nautical Twilight 6:26 AM PST 6:19 PM PST
Astronomical Twilight 5:53 AM PST 6:51 PM PST
Moon 1:42 PM PST (1/22) 3:55 AM PST (1/22)
Length of Visible Light 10h 46m
Length of Day
9h 46m
Waxing Gibbous, 83% of the Moon is Illuminated
Jan 22
Waxing Gibbous
Jan 26
Full
Feb 3
Last Quarter
Feb 9
New
Feb 17
First Quarter

Hourly Weather History & Observations

Time (PST) Temp. Windchill Dew Point Humidity Pressure Visibility Wind Dir Wind Speed Gust Speed Precip Events Conditions
12:10 AM 26.6 °F - 24.8 °F 93% 30.27 in 8.0 mi Calm Calm - N/A   Clear
12:30 AM 26.6 °F - 24.8 °F 93% 30.26 in 9.0 mi Calm Calm - N/A   Clear
12:50 AM 26.6 °F - 24.8 °F 93% 30.26 in 9.0 mi Calm Calm - N/A   Clear
1:10 AM 26.6 °F - 24.8 °F 93% 30.26 in 10.0 mi Calm Calm - N/A   Clear
1:30 AM 26.6 °F - 24.8 °F 93% 30.25 in 9.0 mi Calm Calm - N/A   Clear
1:50 AM 26.6 °F 22.6 °F 24.8 °F 93% 30.25 in 9.0 mi West 3.5 mph - N/A   Clear
2:10 AM 26.6 °F 22.6 °F 24.8 °F 93% 30.25 in 10.0 mi West 3.5 mph - N/A   Clear
2:30 AM 24.8 °F - 24.8 °F 100% 30.25 in 10.0 mi Calm Calm - N/A   Clear
2:50 AM 24.8 °F 20.5 °F 24.8 °F 100% 30.25 in 10.0 mi West 3.5 mph - N/A   Clear
3:10 AM 24.8 °F 20.5 °F 24.8 °F 100% 30.25 in 10.0 mi West 3.5 mph - N/A   Clear
3:30 AM 24.8 °F 20.5 °F 23.0 °F 93% 30.25 in 10.0 mi West 3.5 mph - N/A   Clear
3:50 AM 24.8 °F 20.5 °F 23.0 °F 93% 30.24 in 9.0 mi WNW 3.5 mph - N/A   Clear
4:10 AM 24.8 °F 20.5 °F 23.0 °F 93% 30.24 in 10.0 mi West 3.5 mph - N/A   Clear
4:30 AM 24.8 °F 20.5 °F 23.0 °F 93% 30.23 in 10.0 mi West 3.5 mph - N/A   Clear
4:50 AM 24.8 °F - 23.0 °F 93% 30.23 in 10.0 mi Calm Calm - N/A   Clear
5:10 AM 23.0 °F - 23.0 °F 100% 30.23 in 10.0 mi Calm Calm - N/A   Partly Cloudy
5:30 AM 24.8 °F 20.5 °F 23.0 °F 93% 30.23 in 7.0 mi WNW 3.5 mph - N/A   Partly Cloudy
5:50 AM 23.0 °F 18.4 °F 23.0 °F 100% 30.23 in 10.0 mi West 3.5 mph - N/A   Mostly Cloudy
6:10 AM 23.0 °F - 23.0 °F 100% 30.23 in 10.0 mi Calm Calm - N/A   Scattered Clouds
6:30 AM 23.0 °F 18.4 °F 23.0 °F 100% 30.23 in 10.0 mi West 3.5 mph - N/A   Partly Cloudy
6:50 AM 23.0 °F 18.4 °F 23.0 °F 100% 30.24 in 7.0 mi West 3.5 mph - N/A   Mostly Cloudy
7:10 AM 23.0 °F 18.4 °F 21.2 °F 93% 30.24 in 5.0 mi West 3.5 mph - N/A   Mostly Cloudy
7:30 AM 23.0 °F 18.4 °F 21.2 °F 93% 30.23 in 10.0 mi West 3.5 mph - N/A   Mostly Cloudy
7:50 AM 23.0 °F - 23.0 °F 100% 30.23 in 10.0 mi Calm Calm - N/A   Overcast
8:10 AM 23.0 °F - 23.0 °F 100% 30.24 in 9.0 mi Calm Calm - N/A   Mostly Cloudy
8:30 AM 24.8 °F - 23.0 °F 93% 30.24 in 9.0 mi Calm Calm - N/A   Mostly Cloudy
8:50 AM 24.8 °F - 23.0 °F 93% 30.23 in 10.0 mi Calm Calm - N/A   Partly Cloudy
9:10 AM 28.4 °F - 26.6 °F 93% 30.23 in 10.0 mi Calm Calm - N/A   Clear
9:30 AM 30.2 °F - 28.4 °F 93% 30.23 in 10.0 mi Calm Calm - N/A   Clear
9:50 AM 30.2 °F - 28.4 °F 93% 30.23 in 10.0 mi Calm Calm - N/A   Clear
10:10 AM 32.0 °F - 28.4 °F 87% 30.23 in 10.0 mi Calm Calm - N/A   Clear
10:30 AM 32.0 °F - 26.6 °F 80% 30.22 in 10.0 mi Calm Calm - N/A   Clear
10:50 AM 33.8 °F - 26.6 °F 75% 30.22 in 10.0 mi Calm Calm - N/A   Clear
11:10 AM 33.8 °F - 28.4 °F 81% 30.22 in 10.0 mi Calm Calm - N/A   Clear
11:30 AM 35.6 °F - 30.2 °F 81% 30.21 in 10.0 mi Calm Calm - N/A   Clear
11:50 AM 35.6 °F - 28.4 °F 75% 30.20 in 10.0 mi Calm Calm - N/A   Clear
12:10 PM 39.2 °F - 26.6 °F 61% 30.18 in 10.0 mi Calm Calm - N/A   Clear
12:30 PM 39.2 °F - 26.6 °F 61% 30.17 in 10.0 mi Calm Calm - N/A   Clear
12:50 PM 41.0 °F - 28.4 °F 61% 30.16 in 10.0 mi Calm Calm - N/A   Clear
1:10 PM 41.0 °F - 28.4 °F 61% 30.15 in 10.0 mi Calm Calm - N/A   Clear
1:30 PM 41.0 °F - 30.2 °F 65% 30.14 in 10.0 mi Calm Calm - N/A   Clear
1:50 PM 41.0 °F - 28.4 °F 61% 30.13 in 10.0 mi Calm Calm - N/A   Clear
2:10 PM 41.0 °F - 28.4 °F 61% 30.13 in 10.0 mi Calm Calm - N/A   Clear
2:30 PM 42.8 °F - 30.2 °F 61% 30.12 in 10.0 mi Calm Calm - N/A   Clear
2:50 PM 44.6 °F - 26.6 °F 49% 30.12 in 10.0 mi Calm Calm - N/A   Clear
3:10 PM 42.8 °F - 32.0 °F 66% 30.12 in 10.0 mi Calm Calm - N/A   Clear
3:30 PM 41.0 °F - 32.0 °F 70% 30.12 in 10.0 mi Calm Calm - N/A   Clear
3:50 PM 41.0 °F - 30.2 °F 65% 30.11 in 10.0 mi Calm Calm - N/A   Clear
4:10 PM 39.2 °F - 30.2 °F 70% 30.11 in 10.0 mi Calm Calm - N/A   Clear
4:30 PM 37.4 °F - 30.2 °F 75% 30.11 in 10.0 mi Calm Calm - N/A   Clear
4:50 PM 37.4 °F - 32.0 °F 81% 30.12 in 10.0 mi Calm Calm - N/A   Clear
5:10 PM 35.6 °F - 32.0 °F 87% 30.12 in 9.0 mi Calm Calm - N/A   Clear
5:30 PM 35.6 °F - 32.0 °F 87% 30.11 in 10.0 mi Calm Calm - N/A   Clear
5:50 PM 35.6 °F - 32.0 °F 87% 30.12 in 10.0 mi Calm Calm - N/A   Clear
7:30 PM 32.0 °F - 28.4 °F 87% 30.12 in 10.0 mi Calm Calm - N/A   Clear
7:50 PM 32.0 °F - 28.4 °F 87% 30.12 in 10.0 mi Calm Calm - N/A   Clear
8:10 PM 32.0 °F - 28.4 °F 87% 30.13 in 10.0 mi Calm Calm - N/A   Clear
8:30 PM 32.0 °F - 28.4 °F 87% 30.12 in 10.0 mi Calm Calm - N/A   Clear
8:50 PM 32.0 °F - 28.4 °F 87% 30.13 in 9.0 mi Calm Calm - N/A   Clear
9:10 PM 32.0 °F - 28.4 °F 87% 30.13 in 7.0 mi Calm Calm - N/A   Clear
9:30 PM 32.0 °F - 28.4 °F 87% 30.13 in 8.0 mi Calm Calm - N/A   Clear
9:50 PM 32.0 °F - 28.4 °F 87% 30.14 in 7.0 mi Calm Calm - N/A   Clear
10:10 PM 32.0 °F - 28.4 °F 87% 30.14 in 10.0 mi Calm Calm - N/A   Clear
10:30 PM 32.0 °F - 28.4 °F 87% 30.14 in 8.0 mi Calm Calm - N/A   Clear
10:50 PM 32.0 °F - 28.4 °F 87% 30.14 in 8.0 mi Calm Calm - N/A   Clear
11:10 PM 30.2 °F - 28.4 °F 93% 30.14 in 4.0 mi Calm Calm - N/A   Clear
11:30 PM 28.4 °F - 26.6 °F 93% 30.14 in 10.0 mi Calm Calm - N/A   Clear
11:50 PM 28.4 °F 24.6 °F 26.6 °F 93% 30.14 in 4.0 mi West 3.5 mph - N/A   Clear